Vorticity
16 9 6 6 7 7 6 4 5 7 10 13 15 13 12 11 2 6 5 7 8 9 12 15 15 15 15
3 2 5 6 10 12 7 7 8 7 5 8 9 12 14 15 12 11 11 7 7 7 6 9 10 13 15
9 9 13 11 2 4 13 12 8 8 11 5 5 8 9 13 16 16 15 13 13 10 10 9 7 7 10
11 13 10 5 15 8 5 12 14 11 9 12 7 5 6 7 9 10 14 16 15 13 12 12 11 7 7
17 19 16 15 14 11 12 13 13 16 12 12 16 10 5 6 6 9 9 12 15 14 14 16 15 14 9
19 19 23 21 20 20 20 11 14 14 17 10 14 12 10 7 6 7 8 9 10 11 11 14 16 17 15
9 10 16 19 16 18 16 25 21 19 18 14 9 14 14 11 10 8 8 9 9 8 8 8 13 17 19
6 4 4 6 11 12 13 17 19 17 18 19 15 14 11 12 8 7 6 7 8 8 9 7 8 15 17
12 13 11 9 7 6 10 9 11 18 19 16 17 18 18 14 16 12 10 9 7 7 9 8 11 10 16
12 11 11 12 14 11 6 7 8 11 18 16 16 16 20 18 16 15 12 7 11 8 6 6 8 9 13
7 4 1 4 8 12 16 7 8 8 12 10 10 12 23 24 19 13 17 14 7 10 9 7 5 7 12
4 5 7 4 5 8 11 19 8 9 8 14 9 7 5 -2 18 11 15 14 16 13 12 11 10 7 8
8 8 6 7 6 7 10 17 17 7 10 11 15 7 11 8 27 12 15 15 9 9 12 14 11 9 14
14 15 14 11 8 8 9 16 21 14 10 10 19 11 -7 31 -3 7 23 13 11 11 11 9 13 10 9
14 15 13 11 8 6 11 12 16 21 11 10 16 16 13 10 11 13 18 17 12 10 13 16 8 13 11
18 15 16 14 7 2 11 13 15 22 16 6 16 10 11 13 3 1 5 17 11 11 15 12 19 11 10
13 13 14 11 9 8 12 13 16 26 15 10 26 11 8 7 22 12 24 11 12 11 15 14 18 6 6
Height
3002 3000 2999 3002 3003 3003 3004 3005 3007 3008 3009 3010 3011 3014 3016 3018 3021 3023 3025 3028 3031 3033 3034 3037 3040 3044 3048
2988 2990 2989 2986 2988 2990 2992 2993 2994 2996 2997 2998 3000 3003 3005 3007 3009 3013 3015 3018 3020 3022 3025 3027 3029 3031 3035
2970 2975 2977 2976 2973 2974 2978 2980 2981 2984 2985 2986 2988 2991 2994 2995 2998 3000 3003 3006 3009 3011 3013 3016 3018 3021 3024
2954 2958 2962 2963 2961 2959 2962 2965 2967 2970 2972 2975 2978 2980 2982 2984 2987 2989 2992 2995 2998 3001 3002 3005 3007 3010 3013
2942 2943 2947 2947 2947 2948 2948 2949 2954 2957 2959 2961 2965 2969 2971 2974 2976 2979 2982 2986 2988 2990 2992 2995 2997 2999 3002
2932 2932 2935 2935 2935 2934 2935 2936 2939 2943 2944 2948 2949 2954 2959 2963 2966 2969 2972 2975 2978 2981 2983 2984 2986 2988 2991
2922 2924 2924 2926 2925 2925 2925 2925 2926 2930 2933 2934 2939 2942 2947 2950 2953 2957 2962 2966 2968 2970 2972 2975 2975 2978 2980
2913 2915 2915 2917 2916 2915 2914 2914 2914 2917 2920 2919 2925 2930 2936 2939 2942 2945 2950 2955 2957 2960 2961 2965 2967 2968 2971
2903 2904 2906 2907 2908 2907 2906 2905 2904 2905 2910 2909 2913 2917 2922 2927 2930 2933 2938 2942 2946 2949 2952 2954 2957 2960 2961
2894 2894 2896 2897 2898 2897 2897 2896 2895 2895 2900 2901 2903 2906 2908 2915 2919 2922 2927 2932 2935 2938 2941 2945 2947 2949 2952
2883 2885 2887 2888 2888 2888 2888 2886 2886 2886 2891 2892 2894 2898 2899 2903 2906 2911 2915 2919 2924 2928 2932 2936 2937 2940 2943
2873 2876 2877 2878 2878 2878 2878 2877 2877 2876 2882 2883 2883 2888 2891 2892 2894 2901 2904 2907 2912 2917 2921 2925 2928 2931 2933
2861 2864 2866 2867 2867 2867 2868 2867 2867 2868 2871 2874 2875 2878 2881 2885 2886 2891 2894 2897 2901 2906 2910 2914 2918 2922 2925
2849 2852 2853 2854 2855 2856 2856 2856 2854 2857 2861 2864 2866 2869 2872 2876 2879 2881 2885 2888 2893 2897 2901 2904 2908 2912 2916
2837 2839 2840 2842 2844 2845 2845 2844 2842 2845 2850 2853 2856 2859 2862 2866 2869 2873 2876 2880 2885 2887 2891 2894 2899 2903 2907
2825 2825 2827 2830 2831 2833 2833 2833 2832 2834 2839 2843 2846 2849 2852 2856 2860 2864 2868 2872 2876 2878 2881 2885 2889 2893 2897
2814 2815 2816 2818 2819 2820 2821 2821 2822 2824 2828 2832 2836 2839 2842 2845 2851 2855 2860 2864 2866 2869 2873 2876 2880 2883 2887